x

Saxon Harbor, Wi (sxhw3) Weather Station

6:40am - Fri 6th Mar 2015 All times are CST. -6 hours from GMT.

  • Wind
    11mph, 22mph gusts
  • Air Temp 15°f
  • Sea Pressure 1016.3mb
  • Saxon Harbor, Wi
  • Saxon Harbor, Wi

More Historic Weather Station data

Upgrade to MSW Pro to gain access to the past 30 days of data for over 8000 Wavebouys and Weather Stations around the globe.

Join Pro

Comparision Forecast

View Surf forecast
   
Fri 03/06 6:40am 11 22 mph 1016.3mb 15f
6:30am 13 23 mph 1015.9mb 14f
6:20am 11 24 mph 1016.3mb 14f
6:10am 14 21 mph 1016.3mb 14f
6:00am 14 22 mph 1016.6mb 14f
5:40am 11 23 mph 1016.6mb 13f
5:30am 13 24 mph 1016.9mb 13f
5:20am 13 21 mph 1016.9mb 12f
5:10am 13 21 mph 1016.9mb 12f
5:00am 13 25 mph 1016.9mb 12f
4:40am 14 21 mph 1017.3mb 13f
4:30am 10 21 mph 1017.3mb 12f
4:20am 10 21 mph 1017.6mb 11f
4:10am 10 20 mph 1017.9mb 11f
4:00am 10 18 mph 1017.9mb 10f
3:40am 10 17 mph 1018.6mb 10f
3:30am 10 18 mph 1019mb 10f
3:20am 10 21 mph 1019.3mb 10f
3:10am 9 17 mph 1019.6mb 10f
3:00am 8 16 mph 1020mb 10f
2:40am 10 21 mph 1020.3mb 10f
2:30am 10 21 mph 1020.7mb 10f
2:20am 13 23 mph 1020.7mb 10f
2:10am 13 23 mph 1021.3mb 10f
2:00am 11 20 mph 1021.7mb 10f
1:40am 11 16 mph 1021.7mb 9f
1:30am 11 20 mph 1022mb 9f
1:20am 11 18 mph 1022.4mb 9f
1:10am 11 17 mph 1022.4mb 8f
1:00am 10 15 mph 1022.7mb 8f
12:40am 7 15 mph 1023mb 8f
12:30am 9 15 mph 1023mb 9f
12:20am 9 15 mph 1023.4mb 9f
12:10am 11 22 mph 1023.7mb 9f
12:00am 13 20 mph 1023.7mb 9f
Thu 03/05 11:40pm 14 20 mph 1024mb 9f
11:30pm 14 20 mph 1024.4mb 9f
11:20pm 11 22 mph 1024.4mb 8f
11:10pm 13 18 mph 1024.4mb 9f
11:00pm 11 20 mph 1024.7mb 9f
10:40pm 14 22 mph 1025.4mb 9f
10:30pm 15 22 mph 1025.4mb 9f
10:20pm 11 18 mph 1025.7mb 8f
10:10pm 10 16 mph 1026.1mb 8f
10:00pm 11 17 mph 1026.1mb 8f
9:40pm 9 17 mph 1026.1mb 9f
9:30pm 10 18 mph 1026.1mb 9f
9:20pm 10 16 mph 1026.1mb 9f
9:10pm 11 17 mph 1026.1mb 9f
9:00pm 8 15 mph 1026.4mb 9f
8:40pm 9 13 mph 1026.4mb 10f
8:30pm 7 14 mph 1026.8mb 10f
8:20pm 7 15 mph 1026.8mb 10f
8:10pm 9 16 mph 1026.8mb 10f
8:00pm 11 16 mph 1026.8mb 11f
7:40pm 9 14 mph 1026.4mb 11f
7:30pm 6 11 mph 1026.8mb 11f
7:20pm 6 8 mph 1026.8mb 11f
7:10pm 6 11 mph 1026.8mb 12f
7:00pm 7 13 mph 1027.1mb 12f
6:40pm 5 13 mph 1027.1mb 13f
6:30pm 6 11 mph 1027.1mb 13f
6:20pm 7 16 mph 1027.1mb 13f
6:10pm 6 14 mph 1027.1mb 14f
6:00pm 7 14 mph 1026.8mb 15f
5:40pm 5 10 mph 1026.8mb 15f
5:30pm 6 9 mph 1026.8mb 15f
5:20pm 7 16 mph 1026.8mb 16f
5:10pm 11 18 mph 1027.1mb 16f
5:00pm 9 16 mph 1027.1mb 17f
4:40pm 6 9 mph 1027.1mb 17f
4:30pm 8 14 mph 1027.1mb 17f
4:20pm 7 17 mph 1027.1mb 17f
4:10pm 8 13 mph 1027.1mb 17f
4:00pm 8 15 mph 1027.4mb 17f
3:40pm 6 14 mph 1027.4mb 17f
3:30pm 7 14 mph 1027.4mb 17f
3:20pm 5 14 mph 1027.4mb 17f
3:10pm 10 13 mph 1027.8mb 16f
3:00pm 8 17 mph 1027.8mb 16f
2:40pm 11 16 mph 1028.1mb 15f
2:30pm 8 14 mph 1028.1mb 15f
2:20pm 5 13 mph 1028.1mb 15f
2:10pm 6 11 mph 1028.1mb 14f
2:00pm 6 11 mph 1028.4mb 14f
1:40pm 8 15 mph 1028.8mb 13f
1:30pm 7 17 mph 1028.8mb 12f
1:20pm 1 14 mph 1029.1mb 13f
1:10pm 8 15 mph 1029.1mb 11f
1:00pm 8 14 mph 1029.5mb 11f
12:40pm 10 16 mph 1029.8mb 11f
12:30pm 8 15 mph 1029.8mb 11f
12:20pm 9 13 mph 1029.8mb 10f
12:10pm 10 13 mph 1029.8mb 10f
12:00pm 8 11 mph 1029.8mb 10f
11:40am 6 16 mph 1030.1mb 8f
11:30am 5 14 mph 1030.5mb 8f
11:20am 8 11 mph 1030.5mb 8f
11:10am 7 14 mph 1030.8mb 8f
11:00am 6 13 mph 1030.5mb 7f
10:40am 9 13 mph 1030.8mb 6f
10:30am 9 14 mph 1030.8mb 6f
10:20am 6 9 mph 1030.8mb 6f
10:10am 6 15 mph 1030.8mb 5f
10:00am 10 16 mph 1030.8mb 4f
9:40am 5 10 mph 1030.8mb 4f
9:30am 3 10 mph 1030.8mb 4f
9:20am 3 10 mph 1030.8mb 2f
9:10am 7 10 mph 1030.8mb 1f
9:00am 8 13 mph 1031.2mb 1f
8:40am 8 10 mph 1030.8mb -1f
8:30am 8 11 mph 1030.8mb -2f
8:20am 9 13 mph 1030.8mb -3f
8:10am 9 13 mph 1030.8mb -3f
8:00am 8 14 mph 1030.5mb -4f
7:40am 9 13 mph 1030.1mb -6f
7:30am 9 13 mph 1030.1mb -6f
7:20am 8 13 mph 1029.8mb -7f
7:10am 10 13 mph 1029.8mb -7f
7:00am 10 13 mph 1029.8mb -7f
6:50am 8 13 mph 1029.8mb -8f
6:40am 8 11 mph 1029.8mb -8f
6:30am 8 11 mph 1029.5mb -8f
6:20am 10 13 mph 1029.5mb -8f
6:10am 7 11 mph 1029.5mb -9f
6:00am 9 10 mph 1029.5mb -9f
5:50am 7 10 mph 1029.5mb -9f
5:40am 8 11 mph 1029.1mb -9f
5:30am 7 11 mph 1029.1mb -9f
5:20am 8 10 mph 1029.1mb -8f
5:10am 6 10 mph 1029.1mb -9f
5:00am 7 10 mph 1029.1mb -8f
4:50am 7 10 mph 1029.1mb -8f
4:40am 7 10 mph 1029.1mb -8f
4:30am 8 11 mph 1029.1mb -7f
4:20am 8 11 mph 1028.8mb -7f
4:10am 8 13 mph 1028.8mb -7f
4:00am 8 11 mph 1028.8mb -7f
3:50am 8 11 mph 1028.8mb -7f
3:40am 7 11 mph 1028.8mb -7f
3:30am 7 10 mph 1028.8mb -7f
3:20am 8 10 mph 1028.8mb -5f
3:10am 8 10 mph 1028.4mb -5f
3:00am 8 10 mph 1028.4mb -5f
2:50am 6 8 mph 1028.8mb -7f
2:40am 3 8 mph 1028.8mb -7f
2:30am 6 9 mph 1028.8mb -5f
2:20am 6 10 mph 1028.4mb -4f
2:10am 6 10 mph 1028.4mb -4f
2:00am 8 11 mph 1028.8mb -4f
1:50am 8 10 mph 1028.8mb -4f
1:40am 7 11 mph 1028.8mb -3f
1:30am 8 10 mph 1028.4mb -3f
1:20am 8 11 mph 1028.4mb -3f
1:10am 8 10 mph 1028.4mb -3f
1:00am 7 13 mph 1028.4mb -2f
12:50am 8 11 mph 1028.4mb -3f
12:40am 8 10 mph 1028.4mb -2f
12:30am 8 11 mph 1028.4mb -2f
12:20am 9 11 mph 1028.4mb -2f
12:10am 8 13 mph 1028.1mb -1f
12:00am 8 13 mph 1028.1mb -1f
Wed 03/04 11:50pm 8 11 mph 1028.1mb -1f
10:40pm 8 10 mph 1027.8mb 1f
10:30pm 9 11 mph 1027.4mb 1f
10:20pm 7 9 mph 1027.4mb 1f
10:10pm 5 9 mph 1027.1mb 1f
10:00pm 6 8 mph 1026.8mb 1f
9:50pm 5 10 mph 1026.8mb 1f
9:40pm 5 9 mph 1026.4mb 2f
9:30pm 5 9 mph 1026.4mb 1f
9:20pm 6 11 mph 1026.4mb 1f
9:10pm 6 10 mph 1026.4mb 1f
9:00pm 6 10 mph 1026.1mb -1f
8:50pm 7 10 mph 1025.7mb -1f
8:40pm 7 8 mph 1025.7mb -1f
8:30pm 7 9 mph 1025.7mb -2f
8:20pm 7 8 mph 1025.7mb -3f
8:10pm 6 8 mph 1025.7mb -4f
8:00pm 6 8 mph 1025.7mb -3f
7:50pm 5 7 mph 1025.7mb -2f
6:40pm 3 7 mph 1025.1mb 3f
6:30pm 3 13 mph 1025.1mb 4f
6:20pm 1 7 mph 1024.7mb 4f
6:10pm 3 10 mph 1024.7mb 4f
6:00pm 7 15 mph 1024.4mb 4f
5:50pm 5 10 mph 1024mb 4f
5:40pm 10 17 mph 1024mb 5f
5:30pm 6 13 mph 1023.7mb 5f
5:20pm 8 21 mph 1023.7mb 5f
5:10pm 11 23 mph 1023.4mb 5f
5:00pm 11 17 mph 1023.4mb 5f
4:50pm 17 23 mph 1023mb 6f
4:40pm 10 20 mph 1022.7mb 6f
4:30pm 15 22 mph 1022.7mb 5f
4:20pm 15 21 mph 1022.7mb 6f
4:10pm 13 18 mph 1022.4mb 6f
4:00pm 11 23 mph 1022.4mb 5f
3:50pm 16 22 mph 1022mb 5f
3:40pm 16 25 mph 1022mb 5f
3:30pm 20 24 mph 1021.7mb 5f
3:20pm 18 24 mph 1021.7mb 5f
3:10pm 11 21 mph 1021.7mb 5f
3:00pm 10 20 mph 1021.3mb 5f
2:50pm 10 21 mph 1021.3mb 5f
2:40pm 15 23 mph 1021.3mb 5f
2:30pm 13 21 mph 1021.3mb 6f
2:20pm 11 17 mph 1021mb 6f
2:10pm 13 20 mph 1021mb 6f
2:00pm 14 20 mph 1021mb 6f
1:50pm 9 22 mph 1020.7mb 6f
1:40pm 15 24 mph 1020.7mb 5f
1:30pm 10 18 mph 1021mb 5f
1:20pm 8 16 mph 1021mb 5f
1:10pm 11 18 mph 1020.7mb 6f
1:00pm 10 15 mph 1020.7mb 6f
12:50pm 9 22 mph 1020.7mb 5f
12:40pm 10 16 mph 1020.7mb 5f
12:30pm 14 20 mph 1020.7mb 5f
12:20pm 10 30 mph 1020.7mb 5f
12:14pm 16 30 mph 1019.6mb 5f
12:10pm 16 21 mph 1020.3mb 5f
12:00pm 9 21 mph 1020.3mb 5f
11:50am 10 18 mph 1020.3mb 5f
11:40am 8 17 mph 1020.3mb 6f
11:30am 11 21 mph 1020mb 4f
11:20am 11 20 mph 1020mb 4f
11:10am 10 17 mph 1020mb 4f
11:00am 16 24 mph 1019.6mb 4f
10:50am 11 22 mph 1019.6mb 4f
10:40am 11 18 mph 1019.6mb 4f
9:40am 8 15 mph 1019.6mb 2f
9:30am 8 13 mph 1019.6mb 2f
9:20am 6 13 mph 1019.6mb 2f
9:10am 6 13 mph 1019.6mb 2f
9:00am 5 9 mph 1019.3mb 2f
8:50am 7 14 mph 1019.6mb 2f
8:40am 10 16 mph 1019.3mb 1f
8:30am 8 14 mph 1019.3mb 1f
8:20am 8 13 mph 1019.3mb -
8:10am 7 14 mph 1019mb -
8:00am 8 14 mph 1018.6mb -1f
7:50am 7 11 mph 1018.3mb -1f
4:40am 6 11 mph 1015.6mb 1f
4:30am 6 10 mph 1015.6mb 1f
4:20am 5 10 mph 1015.6mb 2f
4:10am 3 9 mph 1015.2mb 2f
4:00am 3 8 mph 1015.2mb 2f
3:50am 3 10 mph 1014.9mb 2f
3:40am 5 8 mph 1014.9mb 3f
3:30am 2 10 mph 1014.6mb 3f
3:20am 5 10 mph 1014.6mb 3f
3:10am 5 10 mph 1014.6mb 4f
3:00am 3 16 mph 1014.6mb 4f
2:50am 3 8 mph 1014.6mb 4f
2:40am 6 13 mph 1014.2mb 5f
2:30am 2 13 mph 1014.2mb 5f
2:20am 3 9 mph 1014.2mb 5f
2:10am 5 14 mph 1013.9mb 6f
2:00am 5 10 mph 1013.5mb 6f
1:50am 7 11 mph 1013.5mb 6f
1:40am 7 10 mph 1013.2mb 7f
1:30am 5 10 mph 1013.2mb 7f
1:20am 1 7 mph 1012.9mb 7f
1:10am 7 16 mph 1012.5mb 8f
1:00am 8 18 mph 1012.5mb 8f
12:50am 5 13 mph 1012.5mb 8f
12:40am 7 15 mph 1012.5mb 9f
12:30am 10 21 mph 1012.2mb 9f
12:20am 13 21 mph 1011.9mb 9f
12:10am 10 16 mph 1011.9mb 10f
12:00am 11 18 mph 1011.9mb 10f
Tue 03/03 11:50pm 13 24 mph 1011.5mb 11f
11:40pm 13 18 mph 1011.5mb 12f
11:30pm 7 15 mph 1011.5mb 13f
11:20pm 14 21 mph 1011.2mb 12f
11:10pm 14 21 mph 1011.2mb 13f
11:00pm 11 22 mph 1010.8mb 13f
10:50pm 11 21 mph 1011.2mb 13f
10:40pm 5 13 mph 1011.2mb 13f
10:30pm 8 15 mph 1010.8mb 13f
10:20pm 10 17 mph 1010.5mb 13f
10:10pm 11 23 mph 1010.5mb 13f
10:00pm 17 25 mph 1010.2mb 14f
9:50pm 16 23 mph 1009.8mb 15f
9:40pm 14 22 mph 1009.8mb 15f
9:30pm 13 18 mph 1009.5mb 16f
9:20pm 14 20 mph 1009.1mb 17f
9:10pm 14 18 mph 1009.1mb 17f
9:00pm 13 16 mph 1008.8mb 18f
8:50pm 17 24 mph 1008.5mb 18f
8:40pm 9 17 mph 1008.5mb 19f
8:30pm 11 16 mph 1008.5mb 19f
8:20pm 10 16 mph 1007.8mb 19f
8:10pm 10 15 mph 1007.8mb 20f
8:00pm 6 14 mph 1007.8mb 20f
7:50pm 8 16 mph 1007.8mb 20f
7:40pm 11 17 mph 1007.1mb 20f
7:30pm 9 11 mph 1007.1mb 20f
7:20pm 7 14 mph 1006.8mb 21f
7:10pm 7 14 mph 1006.4mb 21f
7:00pm 9 17 mph 1006.1mb 21f
6:50pm 10 16 mph 1005.8mb 21f
6:40pm 10 17 mph 1005.8mb 21f
6:30pm 13 20 mph 1005.4mb 22f
6:20pm 14 20 mph 1004.7mb 22f
6:10pm 11 22 mph 1004.7mb 23f
6:00pm 16 24 mph 1004.4mb 22f
5:50pm 16 24 mph 1004.1mb 23f
5:40pm 21 25 mph 1003.7mb 23f
5:30pm 17 25 mph 1003.7mb 24f
5:20pm 16 26 mph 1003.4mb 25f
5:10pm 14 23 mph 1003.4mb 25f
5:00pm 21 26 mph 1002.7mb 26f
4:50pm 9 22 mph 1002.7mb 27f
4:40pm 9 22 mph 1002.4mb 27f
4:30pm 15 20 mph 1002.4mb 27f
4:20pm 8 20 mph 1002.4mb 27f
4:10pm 13 22 mph 1002mb 28f
4:00pm 6 14 mph 1001.7mb 28f
3:50pm 3 13 mph 1001.7mb 28f
3:40pm 7 13 mph 1001.7mb 29f
3:30pm 9 15 mph 1001.4mb 28f
3:20pm 8 17 mph 1001.4mb 28f
3:10pm 11 17 mph 1001mb 28f
3:00pm 6 13 mph 1001.4mb 28f
2:50pm 9 14 mph 1001mb 29f
2:40pm 2 17 mph 1001mb 29f
2:30pm 7 16 mph 1001.4mb 28f
2:20pm 6 14 mph 1001mb 28f
2:10pm 8 14 mph 1001mb 28f
2:00pm 8 13 mph 1000.7mb 28f
1:50pm 7 14 mph 1001mb 28f
1:40pm 7 17 mph 1001mb 28f
1:30pm 9 18 mph 1001mb 27f
1:20pm 15 21 mph 1001mb 27f
1:10pm 5 15 mph 1001.4mb 27f
1:00pm 3 16 mph 1001.7mb 26f
12:50pm 11 17 mph 1002mb 26f
12:40pm 9 13 mph 1001.7mb 26f
12:30pm 9 15 mph 1002mb 25f
12:20pm 8 16 mph 1002mb 25f
12:10pm 10 14 mph 1002mb 25f
12:00pm 10 16 mph 1002.4mb 24f
11:50am 5 13 mph 1002.7mb 24f
11:40am 9 14 mph 1002.7mb 24f
11:30am 9 15 mph 1002.7mb 23f
11:20am 8 11 mph 1003mb 23f
11:10am 1 10 mph 1003mb 23f
10:40am 3 11 mph 1003.4mb 22f
10:30am 6 10 mph 1003.7mb 22f
10:20am 5 14 mph 1004.1mb 22f
10:10am 2 11 mph 1004.4mb 23f
10:00am 5 10 mph 1004.4mb 23f
9:40am 6 11 mph 1004.7mb 23f
9:30am 6 13 mph 1005.1mb 24f
9:20am  -  5 mph 1005.1mb 24f
9:10am 5 9 mph 1005.4mb 24f
9:00am 3 10 mph 1005.4mb 24f
8:50am 2 8 mph 1005.8mb 24f
8:40am  -  8 mph 1005.8mb 24f
8:30am 3 9 mph 1005.8mb 24f
8:20am 2 9 mph 1005.8mb 24f
8:10am  -  5 mph 1006.1mb 24f
8:00am  -  2 mph 1006.1mb 23f
7:50am  -  mph 1006.4mb 23f
7:40am  -  5 mph 1006.8mb 23f
7:30am  -  5 mph 1007.1mb 23f
7:20am  -  mph 1007.1mb 23f
7:10am  -  7 mph 1007.1mb 23f
7:00am  -  7 mph 1007.8mb 23f
6:50am  -  5 mph 1007.8mb 22f
6:40am  -  7 mph 1008.1mb 23f
6:30am  -  3 mph 1008.5mb 23f
6:20am  -  3 mph 1009.1mb 23f
6:10am  -  6 mph 1009.1mb 23f
6:00am  -  8 mph 1009.5mb 23f
5:50am  -  7 mph 1009.8mb 23f
5:40am 3 7 mph 1009.8mb 23f
5:30am  -  7 mph 1009.5mb 23f
5:20am 3 10 mph 1009.8mb 23f
5:10am 2 9 mph 1010.2mb 23f
5:00am  -  10 mph 1010.5mb 23f
4:50am 3 10 mph 1010.8mb 22f
4:40am 1 9 mph 1011.5mb 22f
4:30am 5 11 mph 1011.2mb 22f
4:20am 2 17 mph 1011.9mb 22f
4:10am  -  9 mph 1012.2mb 22f
4:00am 5 13 mph 1012.5mb 22f
3:50am 7 17 mph 1012.5mb 23f
3:40am 8 15 mph 1012.5mb 24f
3:30am 5 15 mph 1012.5mb 24f
3:20am 9 16 mph 1012.5mb 24f
3:10am 7 14 mph 1012.9mb 24f
3:00am 8 16 mph 1012.9mb 24f
2:50am 7 15 mph 1013.2mb 24f
2:40am 7 16 mph 1013.5mb 24f
2:30am 8 16 mph 1013.9mb 24f
2:20am 10 18 mph 1014.2mb 24f
2:10am 9 15 mph 1014.6mb 24f
2:00am 6 15 mph 1014.9mb 24f
1:50am 7 14 mph 1015.2mb 24f
1:40am 9 14 mph 1015.2mb 24f
1:30am 7 14 mph 1015.6mb 24f
1:20am 3 13 mph 1015.9mb 24f
1:10am 8 13 mph 1015.9mb 24f
1:00am 8 13 mph 1015.9mb 24f
12:50am 6 10 mph 1016.3mb 24f
12:40am 6 13 mph 1016.3mb 24f
12:30am 3 10 mph 1016.6mb 24f
12:20am 5 10 mph 1016.9mb 24f
12:10am 3 11 mph 1016.9mb 24f
12:00am 5 11 mph 1017.3mb 24f
Mon 03/02 11:50pm 6 13 mph 1017.3mb 23f
11:40pm 3 11 mph 1017.6mb 23f
11:30pm 8 14 mph 1017.9mb 23f
11:20pm 2 14 mph 1017.9mb 23f
11:10pm 2 13 mph 1018.3mb 23f
11:00pm 5 14 mph 1018.3mb 23f
10:50pm 2 14 mph 1018.6mb 23f
10:40pm 5 14 mph 1018.6mb 23f
10:30pm 3 13 mph 1019mb 23f
10:20pm 7 14 mph 1019.3mb 23f
10:10pm 7 13 mph 1019.3mb 22f
10:00pm 9 14 mph 1019.3mb 23f
9:50pm 6 11 mph 1019.6mb 22f
9:40pm 5 10 mph 1020mb 22f
9:30pm 5 9 mph 1020mb 22f
9:20pm 3 9 mph 1020.3mb 22f
9:10pm 3 9 mph 1020.7mb 22f
9:00pm 2 6 mph 1020.7mb 22f
8:50pm 1 7 mph 1020.7mb 22f
8:40pm 1 6 mph 1021mb 22f
8:30pm  -  mph 1021mb 23f
8:20pm  -  9 mph 1021mb 23f
8:10pm 2 9 mph 1021mb 24f
8:00pm  -  7 mph 1021.7mb 24f
7:50pm  -  6 mph 1021.7mb 24f
7:40pm 2 9 mph 1021.7mb 24f
7:30pm 5 10 mph 1021.7mb 24f
7:20pm 1 5 mph 1022mb 23f
7:10pm  -  5 mph 1022mb 22f
7:00pm  -  5 mph 1022mb 23f
6:50pm  -  mph 1022mb 23f
6:40pm  -  1 mph 1022.4mb 23f
6:30pm  -  1 mph 1022.4mb 24f
6:20pm  -  7 mph 1022.4mb 26f
6:10pm 2 7 mph 1022.4mb 27f
6:00pm  -  9 mph 1022.7mb 28f
5:50pm 3 9 mph 1023mb 28f
5:40pm 6 10 mph 1023mb 29f
5:30pm  -  7 mph 1023mb 29f
5:20pm 5 13 mph 1023mb 29f
5:10pm 6 13 mph 1023.7mb 30f
5:00pm 3 10 mph 1023.7mb 30f
4:50pm 7 13 mph 1023.7mb 30f
4:40pm 7 13 mph 1024mb 30f
4:30pm 7 13 mph 1024.4mb 31f
4:20pm 6 8 mph 1024.4mb 31f
4:10pm 3 13 mph 1024.7mb 31f
4:00pm 2 10 mph 1024.4mb 31f
3:50pm 7 13 mph 1024.7mb 30f
3:40pm 8 13 mph 1024.7mb 30f
3:30pm 8 13 mph 1025.1mb 30f
3:20pm 2 9 mph 1025.4mb 30f
3:10pm 8 11 mph 1025.4mb 30f
3:00pm 2 13 mph 1025.7mb 29f
2:50pm 7 10 mph 1025.7mb 29f
2:40pm 5 10 mph 1025.7mb 29f
2:30pm 5 13 mph 1025.7mb 29f
2:20pm 7 18 mph 1026.4mb 28f
2:10pm 2 13 mph 1026.8mb 28f
2:00pm  -  13 mph 1026.8mb 28f
1:50pm 5 13 mph 1027.1mb 28f
1:40pm 6 9 mph 1027.4mb 28f
1:30pm 7 13 mph 1027.8mb 28f